Total_Precipitation_Accumulation
2.96 2.91 2.72 2.47 2.12 1.94 2.16 2.25 1.96 2.01 2.12 2.18 2.52 2.82 3.00 3.19 4.32 5.72 6.33 3.28 5.35 6.02 2.10 0.94 0.97 0.89 0.71 0.95 1.65 1.61 2.16 2.14 2.62 2.71 2.60 2.35 2.06 1.51 1.23 1.09 1.49 1.76 2.49 2.51 2.33 2.63 1.23 0.38 0.51 1.08 1.41 1.24 1.18 1.27
3.25 2.88 2.51 2.18 1.91 1.96 2.15 2.35 2.05 2.02 1.98 2.06 2.18 2.47 2.92 3.28 4.11 5.31 5.94 3.58 4.35 6.81 3.78 1.05 1.04 0.71 0.49 0.66 1.28 1.60 2.02 1.98 2.46 2.94 2.24 1.89 1.76 1.57 1.35 1.68 0.82 1.50 1.58 2.03 2.20 1.90 0.97 0.57 0.73 1.07 1.03 1.08 1.06 1.10
3.35 3.08 2.81 2.24 1.99 2.03 2.16 2.25 2.05 1.91 1.77 1.85 2.14 2.27 2.73 3.35 4.17 5.61 5.04 3.92 6.47 8.00 4.06 1.60 1.16 0.73 0.65 0.55 0.80 1.98 1.47 1.30 1.58 1.58 2.45 2.08 1.77 1.08 1.19 0.99 0.95 1.29 0.90 1.31 1.59 1.50 1.01 0.85 0.66 0.63 0.58 0.75 0.83 0.77
3.15 2.97 2.61 2.26 2.04 2.11 1.97 1.95 1.86 1.78 1.74 1.81 2.04 2.41 2.80 3.64 4.22 5.46 4.80 3.83 5.22 5.52 4.71 2.29 0.90 0.71 0.71 0.78 0.77 1.03 1.01 0.96 1.52 2.18 3.11 2.67 2.04 1.27 1.40 0.97 0.93 1.29 1.18 1.38 1.55 1.79 1.08 1.19 1.03 0.99 0.71 0.62 0.52 0.48
2.45 2.38 2.31 2.21 1.96 1.99 1.90 1.96 1.91 1.81 1.90 1.91 2.10 2.51 3.35 3.96 4.90 6.02 4.26 3.64 3.69 4.48 4.40 2.49 1.15 0.84 0.69 0.82 0.75 0.92 1.04 1.34 2.12 3.12 3.18 1.80 1.09 1.68 1.77 1.09 0.96 0.92 1.36 1.60 1.88 1.69 1.63 1.66 1.30 0.96 0.86 0.71 0.46 0.28
1.94 1.94 2.12 2.16 1.86 1.91 1.84 1.92 2.07 2.09 1.99 2.10 2.46 2.75 3.58 4.90 7.13 9.09 10.56 6.27 3.54 3.46 5.19 3.50 1.90 1.15 0.80 0.85 1.11 1.42 1.90 2.25 2.60 3.07 2.14 1.28 0.73 2.01 2.68 1.28 0.94 1.03 1.25 1.24 1.26 1.21 1.06 1.01 1.03 0.78 0.71 0.69 0.62 0.54
1.78 1.81 2.18 2.04 1.83 1.72 1.85 2.06 2.16 2.26 2.37 2.60 2.93 3.12 4.41 6.25 6.79 6.23 5.15 3.66 2.41 3.36 5.24 3.77 2.53 1.78 1.32 1.23 1.90 1.94 2.21 3.24 3.56 3.57 2.30 1.02 0.83 2.49 2.97 1.24 0.82 0.88 0.97 0.82 0.71 0.76 0.82 0.59 0.60 0.61 0.58 0.78 0.69 0.56
1.85 1.76 1.74 1.76 1.70 1.70 1.82 1.96 2.09 2.41 2.74 3.17 3.41 4.58 5.92 6.93 6.44 4.33 1.66 1.51 1.90 4.10 4.17 3.56 3.10 3.18 1.80 2.03 2.69 2.26 2.50 3.01 3.46 3.03 2.01 1.21 1.46 2.36 2.44 0.82 0.47 0.42 0.45 0.34 0.29 0.28 0.42 0.28 0.23 0.31 0.32 0.47 0.49 0.58
1.30 1.23 1.31 1.40 1.53 1.64 1.72 1.86 2.26 2.56 3.31 4.60 5.74 7.66 10.68 9.61 7.31 3.53 1.84 2.12 2.54 3.90 3.79 1.92 2.15 3.66 2.60 2.16 2.67 2.88 2.75 3.29 2.39 2.31 1.60 1.77 1.96 2.09 1.19 0.47 0.36 0.24 0.27 0.23 0.12 0.13 0.12 0.11 0.17 0.40 0.60 0.61 0.62 0.78
1.23 1.08 1.16 1.33 1.49 1.59 1.81 2.16 2.60 3.55 4.72 6.07 8.67 10.16 11.78 6.76 3.24 3.75 6.68 7.28 6.46 4.63 2.89 1.70 1.23 2.34 2.78 2.73 2.66 3.27 2.91 2.50 2.32 1.47 1.36 1.95 1.32 0.63 0.35 0.25 0.20 0.16 0.18 0.21 0.24 0.18 0.15 0.15 0.19 0.33 0.63 0.87 0.93 0.94
1.64 1.61 1.64 1.85 2.03 2.21 2.55 2.68 3.30 4.51 6.36 8.66 8.67 7.43 6.06 4.41 4.50 5.83 6.99 5.32 3.96 2.88 1.36 0.97 1.24 1.94 2.17 2.75 2.76 2.47 3.05 2.39 1.87 1.47 1.57 1.77 1.16 0.96 0.34 0.19 0.13 0.13 0.17 0.26 0.28 0.51 0.35 0.31 0.26 0.45 0.65 0.80 0.76 0.84
1.76 2.07 2.20 2.30 2.36 2.47 2.62 2.91 3.62 5.46 5.82 4.55 4.02 4.77 6.01 5.52 4.67 4.43 3.60 2.43 1.41 1.16 0.64 0.62 0.93 1.10 1.89 2.22 2.72 2.09 2.17 2.12 2.46 1.96 2.23 1.67 1.78 0.71 0.22 0.39 0.36 0.28 0.25 0.27 0.32 0.53 0.44 0.47 0.41 0.44 0.50 0.56 0.60 0.74
1.66 1.86 2.14 2.37 2.29 2.22 2.58 3.19 3.75 3.81 3.16 3.55 3.71 3.73 3.75 3.75 3.08 2.41 1.88 1.34 1.08 0.54 0.49 0.55 1.12 1.34 1.62 2.10 2.65 2.21 2.36 2.13 1.91 2.34 1.63 1.42 1.19 0.75 0.59 0.72 0.73 0.74 0.66 0.76 0.73 0.62 0.60 0.50 0.43 0.42 0.50 0.79 0.95 1.10
1.43 1.97 2.08 2.12 2.27 2.52 3.08 3.53 3.96 3.41 3.27 3.67 3.03 2.67 2.05 1.96 1.27 1.08 1.16 1.09 0.83 0.58 0.54 0.64 1.36 1.92 1.77 2.16 2.47 2.34 2.07 1.65 1.77 1.51 1.47 1.42 0.94 1.01 0.87 0.77 0.68 0.69 0.60 0.59 0.68 0.74 0.82 0.82 0.95 1.06 1.09 1.36 1.39 1.34
1.27 1.62 1.91 2.42 2.58 2.59 2.67 3.19 3.23 2.31 2.58 2.29 1.52 1.27 1.07 1.21 0.91 0.87 0.85 0.72 0.82 0.91 1.02 1.31 1.85 2.07 1.92 2.15 1.68 1.58 1.50 1.24 0.99 1.77 1.79 1.42 1.11 1.01 0.82 0.73 0.70 0.71 0.72 0.74 0.84 0.88 1.10 1.19 1.07 1.20 1.25 1.25 1.27 1.26
1.30 2.17 2.36 2.19 1.86 1.85 2.81 3.73 3.07 1.91 1.63 1.29 1.28 1.36 1.08 1.15 1.14 0.97 0.81 0.83 1.04 1.43 1.66 1.91 2.26 2.42 2.30 1.61 1.19 1.03 0.86 1.06 1.72 1.37 1.23 1.14 0.95 1.00 1.05 0.97 0.96 0.94 0.83 0.83 0.88 0.86 0.85 0.91 0.99 1.15 1.01 0.93 1.19 1.33
2.20 3.44 2.79 2.34 2.54 3.51 3.86 3.35 2.64 1.96 1.28 1.10 1.53 1.56 1.36 1.42 1.72 1.35 1.09 1.00 1.05 1.18 1.53 1.83 1.89 1.62 1.59 1.37 0.96 0.83 1.23 1.35 1.21 1.09 1.02 0.98 0.98 1.06 1.11 1.05 1.01 0.82 0.71 0.70 0.69 0.69 0.69 0.75 0.68 0.59 0.66 0.91 0.90 1.01
2.20 2.36 2.71 3.02 2.93 2.81 2.49 1.72 1.76 1.18 1.10 1.29 1.60 1.56 0.96 1.12 1.22 1.11 1.09 0.85 0.80 0.89 1.12 1.44 1.38 1.18 1.44 1.28 1.20 1.38 1.40 1.25 1.20 1.08 1.03 1.06 1.02 0.93 0.85 0.78 0.83 0.78 0.67 0.59 0.50 0.46 0.44 0.41 0.32 0.38 0.40 0.48 0.49 0.61
1.76 1.77 1.91 1.77 1.24 1.53 1.92 1.43 0.94 1.16 1.79 1.45 1.26 0.85 0.65 0.81 0.83 0.76 0.70 0.48 0.36 0.67 1.28 1.40 1.30 1.21 1.16 1.20 1.27 1.23 1.15 1.05 1.05 0.94 0.85 0.86 0.86 0.80 0.73 0.64 0.70 0.80 0.66 0.56 0.40 0.27 0.25 0.20 0.19 0.17 0.19 0.19 0.27 0.34
1.69 1.54 1.45 1.17 0.96 1.23 0.97 0.93 0.51 0.99 1.39 1.27 0.78 0.47 0.47 0.75 0.62 0.58 0.70 0.76 0.79 1.02 1.45 1.53 1.52 1.39 1.36 1.26 1.03 1.03 0.89 0.77 0.66 0.55 0.67 0.72 0.68 0.52 0.60 0.59 0.55 0.53 0.54 0.43 0.30 0.22 0.19 0.19 0.20 0.17 0.17 0.17 0.22 0.27
2.93 2.48 1.91 1.28 1.30 1.29 1.10 0.78 0.51 0.51 0.94 1.03 0.84 0.71 0.85 0.79 0.99 1.15 1.04 1.07 1.84 1.53 1.35 1.17 1.18 1.21 0.86 0.82 0.71 0.59 0.61 0.52 0.51 0.39 0.45 0.59 0.60 0.43 0.45 0.47 0.40 0.35 0.34 0.42 0.38 0.34 0.28 0.33 0.30 0.23 0.21 0.21 0.22 0.20
2.20 1.54 1.74 1.41 1.51 1.17 0.89 0.45 0.59 0.64 0.82 0.94 0.86 0.91 1.19 1.30 1.34 1.30 1.14 1.41 1.56 1.29 1.17 0.87 0.74 0.67 0.49 0.44 0.41 0.34 0.38 0.32 0.37 0.43 0.52 0.47 0.59 0.65 0.78 0.81 0.69 0.62 0.56 0.61 0.69 0.61 0.48 0.35 0.30 0.24 0.20 0.25 0.23 0.22
1.04 1.10 1.38 1.19 1.39 1.25 0.98 0.72 0.80 0.63 0.86 0.88 0.72 0.92 1.00 1.05 1.28 0.98 1.41 1.41 1.62 1.44 1.02 0.62 0.48 0.35 0.39 0.42 0.33 0.29 0.20 0.21 0.28 0.37 0.40 0.42 0.48 0.54 0.62 0.77 0.79 0.72 0.54 0.43 0.43 0.45 0.44 0.34 0.34 0.46 0.53 0.52 0.38 0.37
1.16 1.54 1.40 1.01 0.83 0.89 0.66 0.59 0.44 0.43 0.51 0.57 0.76 0.93 0.93 0.98 1.11 1.23 1.24 1.27 1.76 1.23 0.72 0.63 0.51 0.52 0.53 0.48 0.49 0.49 0.50 0.41 0.41 0.51 0.65 0.70 0.59 0.53 0.41 0.34 0.27 0.25 0.25 0.20 0.18 0.23 0.23 0.25 0.32 0.47 0.52 0.65 0.81 0.75
1.84 1.86 1.37 1.01 0.48 0.46 0.34 0.37 0.37 0.37 0.38 0.24 0.37 0.55 0.63 0.66 1.01 1.00 1.00 1.81 1.83 1.43 1.07 0.85 0.82 0.79 0.79 0.86 0.85 0.81 0.65 0.43 0.37 0.52 0.58 0.40 0.42 0.37 0.36 0.36 0.32 0.27 0.20 0.25 0.26 0.23 0.25 0.27 0.33 0.37 0.38 0.45 0.56 0.82
1.43 0.75 0.56 0.57 0.43 0.37 0.35 0.32 0.31 0.28 0.30 0.44 0.48 0.40 0.44 0.89 0.99 1.23 1.33 1.71 1.51 1.32 1.09 0.99 0.95 0.81 0.84 0.77 0.76 0.73 0.64 0.31 0.22 0.28 0.41 0.28 0.31 0.33 0.37 0.42 0.50 0.56 0.39 0.31 0.33 0.39 0.40 0.40 0.44 0.47 0.55 0.52 0.50 0.56
1.02 0.73 0.37 0.33 0.46 0.57 0.69 0.63 0.58 0.56 0.58 0.63 0.61 0.56 0.78 1.04 1.04 1.29 1.31 1.16 1.15 1.15 0.92 0.72 0.55 0.57 0.61 0.55 0.54 0.51 0.35 0.36 0.49 0.54 0.54 0.47 0.44 0.36 0.37 0.47 0.55 0.65 0.41 0.37 0.46 0.52 0.54 0.60 0.59 0.59 0.67 0.69 0.62 0.60
0.66 0.33 0.46 0.43 0.56 0.70 0.74 0.67 0.77 0.92 0.88 0.62 0.56 0.71 0.80 0.82 1.17 1.20 1.10 1.22 1.07 0.84 0.88 0.91 0.76 0.62 0.76 0.88 0.85 0.80 0.81 0.76 0.74 0.53 0.49 0.69 0.52 0.35 0.34 0.42 0.48 0.46 0.41 0.44 0.48 0.61 0.75 0.75 0.78 0.70 0.71 0.76 0.84 0.85
0.42 0.23 0.24 0.31 0.31 0.58 0.66 0.65 0.80 0.71 0.58 0.60 0.78 0.90 0.70 0.74 1.19 1.07 1.09 0.96 0.93 0.79 0.95 1.04 1.27 0.98 0.88 1.14 1.24 1.11 1.10 1.09 0.85 0.78 0.60 0.66 0.63 0.58 0.39 0.37 0.41 0.41 0.40 0.43 0.52 0.55 0.64 0.69 0.67 0.69 0.70 0.80 0.84 0.86
0.18 0.12 0.23 0.14 0.18 0.61 0.80 0.56 0.62 0.56 0.40 0.53 0.57 0.55 0.53 1.09 1.63 1.16 0.89 0.81 0.78 0.88 0.93 0.85 0.95 0.81 0.91 0.89 1.24 1.25 1.25 1.37 1.38 1.06 0.84 0.64 0.55 0.45 0.36 0.33 0.31 0.33 0.34 0.35 0.39 0.54 0.67 0.73 0.85 0.90 0.86 0.95 1.04 1.05
0.21 0.27 0.25 0.18 0.41 0.62 0.53 0.37 0.39 0.44 0.57 0.74 0.60 0.52 0.66 1.05 1.04 0.84 0.74 0.86 0.74 0.59 0.53 0.62 0.72 0.74 0.78 0.89 0.95 0.95 1.24 1.39 1.52 1.38 1.29 1.05 0.81 0.63 0.50 0.41 0.38 0.42 0.51 0.53 0.49 0.50 0.56 0.64 0.69 0.72 0.71 0.73 0.74 0.72
0.36 0.41 0.34 0.35 0.63 0.55 0.41 0.39 0.54 0.71 0.83 0.88 1.01 0.92 0.88 0.55 0.54 0.68 0.75 0.73 0.56 0.54 0.60 0.53 0.61 0.87 0.81 0.95 0.98 1.00 1.06 1.14 1.20 1.27 1.49 1.30 1.04 0.86 0.66 0.57 0.54 0.61 0.70 0.66 0.58 0.58 0.58 0.57 0.65 0.67 0.69 0.72 0.73 0.78
0.41 0.27 0.28 0.32 0.38 0.39 0.41 0.41 0.57 0.64 0.73 0.81 0.99 0.92 0.80 0.51 0.62 0.82 0.70 0.59 0.74 0.63 0.57 0.61 0.59 0.69 0.70 0.63 0.62 0.64 0.63 0.72 0.82 0.89 1.04 1.11 1.07 0.98 0.86 0.75 0.68 0.64 0.66 0.66 0.64 0.63 0.62 0.59 0.64 0.64 0.66 0.66 0.64 0.63